STARLINK-1153, 45080

Orbit data source: Space-Track

STARLINK-1153, 45080 is a payload satellite owned by SpaceX/Seattle (US) in LEO that was launched on Wed, 29 Jan 2020 UTC via an FALCON 9 launch vehicle from the Air Force Eastern Test Range (AFETR). Payload-class satellites include a variety of spacecraft equipped with specific instruments for various scientific and technological missions. These include communications satellites like Starlink; space stations such as the ISS; scientific satellites like the Hubble; Earth observation satellites from companies like Planet Labs, Umbra, and HawkEye 360; GPS; miniature CubeSats for education and research; and military/defense satellites.

Loading next visibility...
Identifier
45080, 2020-006AN
Orbit
LEO
Country
Flag of USUS
Related business
Manufacturer
SpaceX/Seattle
Mission
Operational Commercial Communications
Bus & Motor
STARLINK, Unknown motor
Mass
260 kg wet, ~248 kg dry
Launch date (UTC)
2020-01-29 (6 years ago)
Launch vehicle
FALCON 9
Launch site
Air Force Eastern Test Range (AFETR)
Object type
Payload
Rocket body
Debris
Shape & HBR
Box + 1 Pan, 10.1 m
Radar Cross Section
13.562 m², Large (>1 m²)

Expand to show TLE details & history
Last TLE update: 6 hours ago

TLE from 6 hours ago
0 STARLINK-1153
1 45080U 20006AN  25311.70404551 -.00002241  00000-0 -13162-3 0  9990
2 45080  53.0543  94.2318 0001441  91.5648 268.5506 15.06386026318358
Epoch: 2025-11-07T16:53Z
TLE epoch observation values (Epoch: 2025-11-07T16:53:49.532Z)
Latitude
-0°
Longitude
153.63122°
Altitude
548.159 km
Speed
7.589 km/s
True Right ascension
06h 16m 55s
True Declination
0° 00' 00"
Sunlit
Object was in full shadow at epoch
Visualization orbit readout
Latitude
Unknown
Longitude
Unknown
Altitude
Unknown
Speed
Unknown
Apparent Right ascension
Unknown
Apparent Declination
Unknown
Sunlit
N/A
Visualization observer readout
Local Sidereal Time
19:23:37
Azimuth
Unknown
Elevation
Unknown
Doppler factor
Unknown
Orbital elements
Apogee altitude
548.523 km
Perigee altitude
546.527 km
Semi-major axis
6,925.662 km
Eccentricity
0.00014
Inclination
53.0543°
RAAN
94.2318°
Arg. of periapsis
91.5648°
True anomaly
268.53409°
Mean anomaly
268.5506°
Eccentric anomaly
268.54235°
Mean motion
3.76575 °/min
Orbital period
95.6 mins
BSTAR
-0.00013162
Loading maneuver chart data...
Computing Atmospheric mass density...
Loading historical data...
Loading historical data...
Loading historical data...
Loading historical data...
Loading historical data...
Loading historical data...
Loading historical data...

Documentation

Showing up to 5 results
|